Wetbulb
58.76 58.77 58.33 58.21 58.41 58.52 58.58 58.62 58.57 58.85 58.75 59.04 59.90 60.25 61.20 61.33 60.85 58.33 53.13 61.43 64.10 75.53 72.93 71.29 69.60 66.86 66.16 62.35 64.34 63.03 52.03 49.76 54.33 56.32 58.25 64.34 63.10 67.59 67.20 66.04 67.23 67.29 65.63 66.66 69.38
58.36 58.29 58.54 58.25 58.01 58.30 58.30 58.28 58.33 58.35 58.34 58.34 59.08 60.22 61.08 61.37 57.00 53.64 64.51 73.50 75.96 76.47 60.22 59.02 58.67 58.59 56.72 58.05 60.30 56.08 50.30 52.82 57.70 59.77 59.74 63.56 63.66 63.69 63.78 64.60 64.95 64.67 67.15 68.45 69.02
58.00 57.80 57.88 58.14 57.97 57.89 58.12 58.06 57.94 57.96 57.75 57.69 58.71 60.16 61.06 60.56 51.41 53.02 75.23 76.02 75.79 73.57 60.19 59.61 58.72 57.91 54.74 56.08 57.01 55.52 52.27 56.42 57.84 60.50 62.64 63.39 62.49 63.83 63.29 61.18 63.97 63.17 65.13 66.79 68.38
58.05 57.73 57.57 57.47 57.86 58.02 58.00 57.71 57.59 57.38 57.14 57.38 59.00 60.25 61.40 55.25 45.93 55.68 76.30 75.77 75.75 63.66 59.51 58.26 58.15 55.63 53.81 53.92 57.79 53.97 56.78 57.78 58.17 61.71 63.14 61.54 62.68 63.78 64.50 64.38 67.29 66.56 66.81 66.94 67.43
57.58 57.39 57.67 57.36 57.26 57.46 57.52 57.26 57.05 56.98 56.93 57.53 59.31 60.46 54.86 47.66 50.87 56.86 70.02 72.27 63.50 59.56 57.18 57.06 56.59 55.09 53.53 55.05 56.45 53.42 54.31 55.43 58.27 60.65 62.61 63.24 60.86 62.20 64.70 66.77 67.44 67.19 66.92 66.50 67.06
57.66 57.36 56.85 57.12 57.36 56.88 57.29 56.51 56.33 56.33 56.83 58.31 59.53 60.92 52.55 43.89 53.69 56.76 55.44 56.41 59.48 57.08 56.71 57.88 57.84 57.66 55.06 54.66 54.28 56.73 54.93 54.81 56.26 56.76 60.66 61.16 60.62 62.84 64.43 66.57 66.19 66.41 65.76 66.33 66.98
57.93 57.85 57.37 57.08 56.68 56.80 56.34 55.92 55.91 55.98 56.88 58.37 59.99 59.73 51.62 47.78 54.65 54.98 53.95 51.99 55.97 56.02 52.43 58.46 59.91 56.76 56.27 54.05 56.86 55.57 52.02 53.63 54.65 56.16 55.95 60.40 57.98 59.46 65.15 66.03 65.03 64.84 65.82 67.23 67.69
58.35 58.00 57.13 56.72 56.54 56.25 55.48 55.20 55.59 56.88 57.85 58.88 60.46 54.12 45.12 52.00 54.38 56.71 53.76 52.85 54.17 53.80 54.19 56.81 60.61 56.31 54.10 54.64 54.37 52.14 50.53 47.21 53.42 55.16 55.45 56.38 49.89 58.70 65.40 64.46 63.53 64.50 65.32 65.80 66.45
58.24 58.02 57.57 56.95 56.01 55.08 54.73 55.31 56.98 58.31 58.57 59.23 50.86 47.46 44.47 57.11 52.57 54.85 54.41 51.71 51.68 52.08 53.55 60.43 57.54 52.92 52.32 49.61 47.59 48.77 44.87 48.23 50.71 55.98 55.07 53.31 51.44 59.62 65.06 64.27 62.96 63.52 64.57 66.14 66.01
57.78 57.57 57.41 56.97 55.53 54.71 54.52 55.08 56.93 56.68 57.55 59.34 58.27 45.59 47.14 46.45 51.91 54.10 52.42 53.34 50.71 52.03 53.16 54.10 51.55 48.77 47.19 47.63 42.87 45.05 45.61 48.27 48.18 52.65 56.88 54.30 53.76 58.05 61.81 63.83 63.08 63.39 64.47 62.64 65.37
57.71 57.17 56.90 56.18 54.95 54.21 51.74 47.71 44.21 43.54 48.99 44.45 43.36 44.61 48.51 52.08 51.15 51.76 52.69 52.42 50.54 49.50 46.08 50.14 48.93 46.95 47.78 50.16 51.11 48.84 46.47 47.33 50.49 54.90 55.32 53.40 54.01 56.44 61.25 63.10 62.64 62.85 64.01 60.64 62.70
57.45 56.96 56.58 55.58 54.36 53.66 51.00 46.06 44.71 48.67 44.42 50.23 49.82 49.45 50.49 49.52 47.34 49.30 51.24 49.10 47.59 45.36 48.03 47.27 47.00 50.11 52.09 52.07 50.16 48.18 46.83 46.53 50.27 57.34 55.23 53.14 52.02 56.19 58.44 61.34 62.60 62.80 61.66 63.40 62.42
57.05 56.64 55.96 54.76 54.06 49.86 46.80 48.49 51.75 50.85 42.62 46.84 49.54 49.50 51.01 50.99 48.53 47.88 49.96 48.08 46.55 44.97 45.84 45.03 49.00 52.95 51.70 49.94 48.87 45.01 44.08 45.39 47.80 55.16 54.95 52.71 49.76 51.62 56.66 58.24 60.49 62.07 62.70 62.24 60.75
56.83 56.60 55.27 53.16 50.46 48.86 50.17 51.36 51.96 50.63 39.67 44.40 46.64 50.36 49.30 49.14 45.36 51.24 49.91 49.33 46.17 46.12 46.99 46.07 50.51 51.39 49.23 48.67 48.71 44.03 49.57 49.56 49.28 49.44 45.45 50.59 43.40 47.37 52.12 53.30 57.24 58.95 59.23 62.04 61.70
56.60 56.18 54.46 53.12 47.86 48.76 51.97 51.67 50.86 48.46 31.82 48.59 47.83 51.84 46.30 46.39 45.55 47.26 49.22 48.60 45.18 47.69 47.92 47.52 48.30 48.38 47.08 49.12 50.62 47.99 49.67 46.19 49.51 43.72 44.71 46.31 43.49 44.85 50.37 50.02 52.35 55.95 56.94 59.47 61.17
56.24 55.47 53.99 49.92 50.61 50.25 51.86 51.71 48.99 40.36 35.13 46.69 48.11 44.85 43.00 42.96 44.53 47.69 47.30 49.28 49.34 48.18 47.30 48.82 50.60 49.22 49.21 50.65 50.90 50.97 46.01 44.19 41.30 39.58 37.28 39.97 43.13 42.51 46.93 50.10 53.30 57.26 58.86 59.91 63.26
54.78 53.50 52.20 52.43 49.01 51.57 51.48 48.67 39.16 34.20 46.96 44.71 43.05 42.31 40.57 40.28 43.12 45.18 44.78 43.48 43.60 41.25 39.90 45.76 48.02 48.48 50.11 45.74 45.96 44.83 40.89 36.40 36.40 36.24 36.16 40.10 43.37 45.42 50.62 54.85 56.33 57.56 59.00 62.52 65.03
52.90 51.58 50.35 51.14 50.59 52.16 49.40 45.35 34.82 42.98 44.21 48.08 43.87 41.16 41.55 41.82 40.61 42.26 43.21 42.13 43.55 43.87 39.75 41.43 41.40 46.43 47.77 46.91 44.59 41.69 40.72 37.68 34.28 34.05 37.66 43.51 41.37 46.52 54.76 57.45 58.98 60.34 60.76 63.79 64.94
51.53 47.46 48.02 50.04 51.86 50.10 47.09 38.72 38.91 42.29 47.87 47.28 43.28 39.09 37.27 42.35 42.63 41.96 41.49 41.81 44.79 45.08 41.79 39.05 41.08 46.65 47.95 47.41 47.45 42.34 40.23 42.20 39.44 39.32 38.60 41.72 47.74 52.39 55.09 55.52 57.24 57.52 59.27 63.18 65.13
47.09 46.71 50.38 52.10 52.21 48.54 44.41 39.45 42.61 47.54 50.40 46.64 40.67 41.69 37.30 39.78 41.33 40.66 41.50 45.04 45.37 47.43 46.36 42.20 39.72 43.38 46.33 47.15 46.44 43.53 45.69 40.78 40.52 36.86 35.86 40.05 44.43 45.38 51.17 53.69 55.68 56.08 59.42 63.43 65.36
46.38 46.73 52.67 51.95 49.10 47.41 40.36 40.97 47.19 51.26 50.94 46.19 43.57 42.25 42.57 41.11 41.68 40.33 42.35 45.45 47.68 45.82 46.44 41.87 40.38 42.78 43.20 43.04 42.16 44.05 42.71 42.49 42.58 40.04 36.80 36.73 41.72 50.51 52.32 53.76 54.63 56.26 61.18 63.47 64.88
43.77 44.33 52.44 50.03 44.64 39.57 41.39 45.47 48.39 47.70 49.43 48.87 47.22 46.33 44.71 43.03 40.68 40.57 43.17 46.27 48.83 46.36 44.62 43.22 38.91 38.51 41.63 44.26 49.20 46.97 43.62 44.45 41.07 40.18 40.18 40.24 42.82 53.96 55.01 56.08 55.90 56.13 58.59 63.40 65.44
42.34 43.14 52.80 50.66 40.15 40.00 43.11 46.34 49.07 49.04 48.42 48.04 47.54 48.48 46.64 44.63 41.19 42.61 43.82 48.35 47.86 45.85 44.45 44.41 38.41 35.93 39.72 43.07 48.61 48.00 46.89 44.44 42.94 42.31 40.69 40.32 43.27 55.05 55.86 56.33 57.41 55.68 57.89 62.45 64.35
43.23 46.42 52.02 47.96 43.91 43.31 45.50 46.09 48.17 54.87 51.01 50.42 49.63 48.85 46.07 45.07 43.81 44.43 43.79 46.85 48.35 48.48 58.21 49.86 37.03 38.73 37.75 38.98 45.90 47.58 49.03 47.83 44.09 41.41 40.99 43.83 47.62 52.11 55.71 55.93 56.71 56.69 59.80 62.50 61.97
44.24 45.76 50.84 46.17 47.77 47.11 46.91 48.03 50.49 51.71 52.41 50.38 49.77 49.56 48.73 43.31 46.35 47.47 48.62 45.26 50.49 57.97 45.66 44.30 39.66 40.12 43.40 46.18 48.04 49.14 49.26 48.66 46.67 45.17 44.75 46.03 48.08 51.84 52.21 55.07 55.60 57.08 62.20 60.75 59.92
45.43 46.41 47.62 46.66 48.85 47.05 44.96 47.60 51.22 53.52 51.90 50.33 49.36 53.30 52.97 46.80 48.16 45.97 48.16 45.64 45.83 46.00 42.20 44.24 41.92 44.49 45.69 49.44 50.06 48.98 49.92 49.49 50.47 48.34 48.39 48.79 49.32 52.58 54.84 55.74 55.77 61.41 61.50 58.66 58.84
46.11 46.87 48.42 46.01 47.30 46.15 47.97 51.32 53.36 54.54 55.73 56.84 54.66 52.56 51.31 52.48 53.14 50.71 51.24 50.18 49.33 45.79 44.77 45.42 44.09 42.44 40.96 47.45 46.21 44.65 48.36 49.58 50.80 51.03 49.84 46.93 50.46 55.58 56.47 55.69 57.52 61.51 62.33 59.30 58.91
MSLP
1017.63 1017.19 1016.86 1016.57 1016.24 1015.86 1015.55 1015.32 1015.05 1014.67 1014.27 1013.75 1013.17 1012.73 1012.20 1011.59 1010.36 1010.19 1009.43 1007.59 1007.40 1007.47 1007.86 1008.56 1008.82 1008.62 1008.73 1008.76 1008.73 1008.88 1009.50 1009.30 1008.60 1008.23 1007.51 1007.51 1007.80 1007.88 1007.80 1008.37 1008.71 1009.43 1010.06 1010.74 1012.18
1017.68 1017.37 1017.03 1016.59 1016.23 1015.82 1015.45 1015.10 1014.85 1014.58 1014.25 1013.85 1013.38 1012.76 1012.24 1011.74 1011.00 1009.42 1007.51 1007.18 1007.18 1007.40 1007.75 1008.16 1008.43 1008.36 1008.70 1008.52 1008.43 1008.66 1008.95 1008.05 1006.95 1006.71 1006.54 1006.74 1007.17 1007.73 1008.23 1008.48 1009.13 1009.94 1010.58 1011.17 1011.99
1017.70 1017.35 1016.93 1016.50 1016.10 1015.66 1015.20 1014.80 1014.57 1014.45 1014.25 1013.94 1013.50 1012.91 1012.33 1012.04 1011.04 1008.26 1007.20 1006.78 1006.96 1007.39 1007.38 1007.63 1007.89 1007.95 1008.21 1008.16 1008.03 1008.02 1007.86 1007.00 1005.85 1005.68 1005.90 1006.50 1007.30 1007.81 1008.29 1008.84 1008.84 1009.60 1010.82 1011.57 1012.28
1017.60 1017.20 1016.83 1016.47 1016.02 1015.51 1015.08 1014.64 1014.30 1014.12 1014.08 1013.86 1013.48 1013.01 1012.46 1012.18 1010.23 1007.35 1007.00 1006.77 1006.96 1007.16 1007.40 1007.56 1007.66 1007.86 1008.07 1008.09 1007.68 1007.64 1006.68 1006.27 1005.31 1005.51 1006.00 1006.40 1007.01 1007.92 1008.15 1007.96 1007.96 1009.32 1010.17 1011.07 1011.92
1017.64 1017.19 1016.70 1016.25 1015.89 1015.52 1015.05 1014.60 1014.24 1013.92 1013.74 1013.57 1013.26 1012.85 1012.24 1011.56 1008.76 1006.88 1006.87 1006.87 1006.91 1007.01 1007.22 1007.37 1007.61 1007.86 1008.03 1007.95 1007.47 1007.07 1006.16 1005.56 1005.52 1005.26 1005.55 1006.02 1006.46 1007.33 1007.98 1007.73 1008.11 1009.35 1010.42 1011.19 1012.03
1017.65 1017.19 1016.71 1016.27 1015.79 1015.34 1014.91 1014.53 1014.22 1013.96 1013.70 1013.40 1013.21 1012.86 1012.32 1010.55 1007.01 1007.01 1007.17 1007.00 1007.04 1007.08 1007.23 1007.26 1007.39 1007.60 1007.93 1007.95 1007.77 1006.88 1006.21 1005.61 1005.04 1005.45 1005.47 1005.94 1006.74 1007.05 1007.95 1008.02 1008.55 1009.54 1010.41 1011.22 1011.35
1017.62 1017.16 1016.69 1016.20 1015.78 1015.23 1014.76 1014.38 1014.05 1013.84 1013.63 1013.36 1013.09 1012.84 1011.92 1008.35 1006.71 1006.94 1007.03 1006.95 1006.89 1007.02 1007.15 1007.15 1007.19 1007.54 1007.75 1007.79 1007.38 1006.91 1006.60 1005.79 1005.12 1005.22 1005.42 1005.85 1006.83 1007.11 1007.56 1008.13 1008.88 1009.69 1010.45 1010.90 1011.25
1017.51 1017.06 1016.61 1016.14 1015.58 1015.10 1014.61 1014.19 1013.82 1013.55 1013.41 1013.28 1013.06 1012.82 1010.95 1007.40 1006.97 1006.84 1006.69 1006.63 1006.58 1006.81 1006.86 1006.77 1006.95 1007.44 1007.82 1007.73 1007.41 1007.43 1007.35 1007.06 1006.05 1005.80 1005.88 1005.88 1006.71 1007.26 1007.80 1008.16 1009.06 1009.75 1010.53 1011.07 1011.36
1017.30 1016.85 1016.40 1015.93 1015.43 1014.93 1014.33 1013.69 1013.17 1013.06 1013.13 1013.15 1013.06 1012.43 1010.04 1007.20 1007.04 1006.08 1006.17 1006.42 1006.49 1006.56 1006.53 1006.70 1007.09 1007.81 1008.08 1008.36 1008.73 1008.72 1008.53 1007.84 1006.89 1006.47 1006.69 1006.39 1007.51 1007.53 1008.23 1008.64 1009.23 1009.86 1010.33 1010.82 1011.24
1017.11 1016.62 1016.10 1015.68 1015.15 1014.60 1013.97 1013.33 1013.06 1013.01 1013.11 1013.00 1012.58 1012.31 1009.08 1007.47 1006.65 1006.14 1006.09 1006.03 1006.37 1006.59 1006.76 1007.11 1007.85 1008.44 1009.17 1009.20 1009.77 1009.57 1009.16 1008.43 1008.01 1007.02 1007.00 1007.38 1007.94 1008.48 1008.66 1009.15 1009.64 1010.25 1010.51 1010.71 1010.89
1016.95 1016.50 1015.96 1015.40 1014.88 1014.46 1013.86 1013.39 1013.61 1013.30 1012.74 1011.26 1010.68 1009.94 1008.46 1007.34 1006.68 1006.08 1005.96 1006.07 1006.46 1006.98 1007.35 1007.69 1008.39 1008.72 1009.14 1009.05 1009.14 1009.24 1009.22 1008.92 1007.78 1007.58 1007.74 1008.57 1008.77 1009.15 1009.00 1009.39 1009.83 1010.28 1010.63 1010.81 1010.87
1016.73 1016.22 1015.70 1015.14 1014.57 1014.24 1014.22 1013.42 1012.33 1012.33 1011.48 1009.82 1009.56 1009.14 1008.14 1007.72 1007.42 1006.22 1005.81 1006.23 1006.81 1007.40 1007.70 1008.12 1008.10 1008.34 1008.34 1008.49 1008.80 1008.86 1008.96 1008.71 1008.09 1007.99 1008.39 1009.25 1009.46 1009.51 1009.43 1009.57 1009.70 1010.10 1010.40 1010.74 1010.82
1016.58 1016.08 1015.51 1014.80 1014.22 1014.21 1014.01 1012.51 1011.61 1011.59 1011.38 1009.18 1008.65 1008.20 1007.50 1007.47 1007.20 1006.18 1005.96 1006.13 1006.74 1007.43 1007.75 1008.11 1007.93 1007.66 1007.75 1008.14 1008.45 1008.50 1008.72 1008.57 1008.48 1008.66 1009.01 1009.57 1010.17 1010.02 1009.68 1009.68 1009.59 1009.82 1009.99 1010.23 1010.36
1016.34 1015.91 1015.48 1014.86 1014.44 1014.39 1013.21 1011.72 1011.38 1011.17 1011.02 1008.95 1007.89 1006.55 1006.74 1006.68 1006.43 1005.57 1005.49 1005.93 1006.77 1007.22 1007.80 1007.97 1007.40 1007.29 1007.49 1007.80 1008.03 1007.99 1007.97 1008.17 1008.50 1009.36 1009.83 1010.03 1011.22 1010.64 1010.13 1009.84 1009.54 1009.71 1009.70 1009.70 1009.80
1016.02 1015.68 1015.45 1015.40 1014.85 1014.02 1012.15 1011.66 1011.16 1011.12 1010.50 1007.82 1006.83 1005.83 1006.20 1006.19 1005.64 1005.35 1005.27 1005.56 1006.52 1007.14 1007.76 1007.60 1007.22 1007.15 1007.28 1007.19 1007.28 1007.46 1007.60 1008.38 1008.83 1010.02 1010.38 1010.87 1011.38 1010.43 1010.56 1010.21 1009.70 1009.54 1009.45 1009.36 1009.43
1015.48 1015.30 1015.22 1015.12 1014.95 1012.39 1011.75 1011.55 1011.30 1011.30 1009.39 1007.14 1006.21 1006.08 1006.21 1005.79 1005.47 1005.43 1005.50 1005.53 1006.28 1007.12 1007.55 1007.39 1006.93 1006.68 1006.32 1006.26 1006.77 1007.12 1008.00 1009.21 1010.45 1011.16 1012.03 1011.80 1011.94 1010.92 1010.34 1009.47 1009.33 1009.34 1009.32 1009.11 1009.27
1014.83 1014.42 1014.82 1014.27 1013.01 1011.91 1011.79 1011.70 1011.86 1010.69 1008.57 1007.31 1006.46 1006.08 1005.94 1005.81 1005.61 1005.54 1005.99 1006.29 1006.86 1007.49 1007.86 1007.38 1006.77 1006.09 1005.86 1006.21 1006.59 1007.34 1008.95 1010.70 1012.17 1012.73 1012.85 1012.37 1012.35 1010.19 1009.01 1008.76 1008.45 1008.71 1008.93 1009.12 1009.61
1014.15 1013.34 1012.87 1012.67 1012.03 1012.06 1011.96 1011.86 1011.70 1009.89 1008.57 1007.13 1006.43 1006.25 1006.11 1005.87 1005.81 1005.90 1006.35 1006.96 1007.18 1007.46 1008.28 1007.90 1007.09 1005.96 1005.59 1005.65 1006.31 1007.50 1008.85 1010.44 1012.20 1013.60 1013.35 1012.89 1011.94 1009.21 1008.46 1008.30 1008.61 1008.75 1009.03 1009.56 1009.83
1013.57 1012.88 1012.78 1011.54 1011.92 1012.08 1012.01 1012.14 1010.96 1009.67 1008.43 1007.50 1006.53 1006.36 1006.20 1005.86 1005.96 1006.27 1006.63 1007.09 1007.09 1007.35 1007.84 1007.95 1007.16 1005.84 1005.45 1005.23 1006.05 1007.64 1009.05 1009.93 1011.86 1013.81 1013.90 1012.97 1011.16 1009.38 1008.62 1008.45 1008.67 1008.76 1009.11 1009.71 1010.20
1014.39 1013.61 1012.05 1011.23 1011.60 1011.77 1011.84 1011.79 1010.63 1009.32 1008.14 1007.32 1006.95 1006.48 1006.29 1006.15 1006.43 1006.56 1006.72 1006.13 1006.63 1006.79 1006.75 1007.87 1007.57 1006.26 1005.49 1005.72 1006.25 1006.83 1008.08 1009.98 1011.79 1013.56 1014.26 1013.20 1012.04 1010.27 1008.70 1008.20 1008.41 1008.98 1009.27 1010.02 1010.43
1014.45 1013.43 1011.78 1011.39 1011.91 1011.64 1012.24 1011.51 1010.05 1008.60 1007.99 1007.31 1006.87 1006.69 1006.51 1006.27 1006.23 1006.45 1006.21 1005.66 1005.49 1006.52 1006.88 1007.82 1008.10 1006.99 1006.51 1006.02 1006.66 1007.44 1008.32 1010.26 1011.95 1013.06 1013.71 1013.43 1011.30 1008.41 1008.07 1007.83 1008.09 1008.84 1009.47 1009.92 1009.97
1015.03 1013.76 1011.80 1012.03 1012.20 1012.55 1011.89 1010.55 1009.30 1008.26 1007.51 1007.17 1006.61 1006.37 1006.28 1006.06 1005.99 1005.90 1005.48 1004.65 1004.38 1005.27 1006.87 1007.36 1008.29 1008.41 1007.33 1006.39 1006.70 1007.06 1007.97 1009.18 1011.40 1013.17 1013.20 1012.16 1009.44 1007.72 1007.47 1007.79 1008.17 1008.67 1009.09 1009.57 1010.04
1016.13 1014.51 1011.90 1011.92 1012.43 1012.43 1011.32 1010.14 1009.02 1008.01 1007.18 1006.61 1006.00 1005.50 1005.37 1005.66 1005.73 1004.85 1004.27 1003.46 1003.98 1004.91 1005.57 1006.84 1007.93 1008.61 1007.80 1007.30 1006.45 1006.93 1007.76 1008.67 1009.91 1011.14 1012.08 1011.49 1008.67 1007.24 1006.92 1007.59 1008.28 1008.88 1009.49 1010.55 1011.62
1016.49 1015.02 1013.11 1012.46 1012.51 1012.04 1011.30 1010.06 1008.97 1007.33 1006.72 1006.05 1005.51 1005.20 1005.34 1005.06 1004.69 1004.35 1003.91 1003.42 1003.36 1003.96 1004.73 1005.64 1007.67 1008.00 1007.79 1007.15 1006.68 1007.05 1007.42 1008.12 1008.83 1010.19 1010.93 1010.06 1008.32 1006.54 1006.87 1007.55 1008.15 1009.39 1010.21 1011.23 1012.02
1016.56 1015.70 1014.63 1013.60 1012.94 1012.15 1011.25 1010.01 1008.86 1007.46 1006.57 1005.83 1005.34 1005.45 1005.94 1005.34 1004.53 1004.47 1004.07 1003.59 1004.21 1004.46 1005.37 1005.81 1007.51 1008.08 1007.84 1007.29 1006.78 1006.47 1006.88 1007.43 1008.07 1008.56 1008.93 1008.30 1007.88 1006.41 1006.53 1006.88 1007.94 1009.43 1010.64 1011.51 1012.14
1016.63 1016.14 1014.91 1014.05 1013.16 1012.37 1011.27 1010.02 1008.94 1007.65 1007.09 1006.25 1006.04 1005.63 1005.50 1005.51 1004.72 1004.64 1004.49 1004.35 1004.60 1005.61 1006.18 1006.84 1007.98 1008.41 1008.56 1007.62 1007.01 1006.93 1006.88 1007.12 1007.43 1007.66 1007.63 1007.59 1007.28 1006.48 1006.57 1007.06 1008.01 1009.04 1010.32 1011.24 1011.70
1016.66 1016.14 1015.68 1014.39 1013.41 1012.63 1011.18 1009.80 1008.60 1007.93 1006.95 1006.65 1006.64 1006.56 1006.12 1005.99 1005.49 1005.24 1005.17 1004.69 1004.98 1005.85 1007.07 1007.72 1008.50 1009.58 1009.79 1008.77 1007.92 1007.80 1007.22 1007.09 1006.96 1006.86 1007.14 1007.30 1006.76 1006.63 1007.01 1007.58 1007.88 1008.78 1009.63 1010.50 1010.92
Wind_Speed
15 16 17 17 17 18 17 16 15 15 16 18 19 19 19 20 19 3 4 9 6 8 8 6 1 2 2 2 4 3 3 2 4 6 5 8 6 4 1 5 2 4 6 9 19
15 15 16 17 18 18 18 17 16 15 15 16 17 19 18 19 4 4 10 3 6 11 4 3 1 2 1 3 2 3 2 6 7 6 7 9 6 9 3 3 2 8 13 19 20
16 16 17 17 18 19 19 18 16 15 14 14 16 17 17 13 6 5 2 1 12 9 4 3 1 2 1 2 2 3 4 4 6 5 8 10 5 4 9 3 6 9 16 18 17
16 17 18 18 18 19 18 18 17 16 14 14 14 15 17 2 5 3 4 9 8 6 4 1 3 2 1 3 3 3 9 5 5 7 4 8 8 6 10 6 7 15 21 17 18
16 17 17 17 18 18 18 18 17 16 15 14 14 14 3 0 12 4 8 3 5 4 3 2 3 2 4 5 8 3 5 6 6 7 5 6 7 6 6 4 13 16 17 16 13
16 16 17 17 18 19 18 17 16 15 14 13 11 12 1 5 4 5 8 6 4 2 2 2 3 3 2 4 1 4 7 10 5 5 5 7 3 6 5 12 13 15 15 13 16
15 16 17 18 18 19 19 18 16 14 13 10 9 3 1 16 2 8 5 3 3 3 1 3 3 1 1 6 1 5 6 8 3 6 6 7 3 5 9 14 16 13 12 13 13
17 17 18 19 19 19 20 18 17 14 11 7 4 1 9 6 6 8 2 3 3 4 4 4 6 2 3 4 8 5 5 5 5 5 4 4 7 4 11 16 14 13 12 10 7
17 17 18 18 19 20 21 22 15 8 5 3 1 2 11 9 4 6 7 5 0 2 4 4 5 2 4 4 6 8 2 4 10 6 4 4 3 1 5 11 12 10 9 8 6
18 19 19 18 20 21 22 13 3 4 1 3 3 3 6 3 5 3 2 5 2 3 3 3 5 4 5 6 2 4 4 5 4 8 7 2 1 6 2 7 9 7 7 6 8
18 18 19 19 21 16 10 3 4 2 2 10 6 4 6 8 3 3 3 6 4 5 3 2 5 6 5 5 4 2 2 5 5 3 4 3 4 5 1 6 7 7 7 7 8
19 19 19 21 20 13 0 3 2 1 7 11 5 8 5 3 5 4 3 6 5 4 2 5 6 5 5 4 5 3 1 7 4 4 5 1 5 4 3 2 4 7 6 8 4
19 19 19 21 19 2 1 6 3 2 1 8 6 5 6 9 7 7 6 5 3 5 4 5 4 4 3 1 2 2 3 4 6 2 4 4 4 4 2 1 5 5 6 7 10
19 18 16 24 1 4 5 2 6 6 5 8 4 7 5 5 4 6 4 7 2 7 7 3 4 2 2 4 4 6 8 5 2 4 4 2 4 5 4 6 4 5 5 9 9
20 17 12 7 6 2 1 6 1 3 4 2 3 0 1 8 3 4 3 6 7 4 6 6 3 4 3 5 6 9 5 3 3 4 4 3 4 8 3 6 5 5 7 7 8
22 17 14 1 3 8 6 6 3 8 6 4 4 3 3 1 1 3 3 5 5 5 1 6 3 4 7 4 7 4 4 8 7 2 3 2 4 8 6 8 4 4 6 7 5
24 21 8 3 5 1 3 3 7 4 5 4 2 4 2 3 1 2 6 5 6 5 2 2 5 3 4 3 1 6 7 2 3 6 6 1 2 12 4 6 7 7 4 7 3
26 25 4 6 4 3 2 6 2 4 5 5 2 3 6 4 3 2 5 5 1 6 4 5 5 6 3 7 6 4 8 8 6 4 5 1 6 7 3 5 3 4 1 4 5
24 3 2 4 9 1 5 3 7 6 3 7 4 3 1 3 5 3 5 8 9 7 6 5 6 4 4 3 7 3 3 4 10 4 3 4 8 8 7 9 4 6 8 8 6
5 4 4 3 8 2 6 5 4 4 5 2 3 1 2 2 4 6 7 6 7 10 6 5 2 3 4 3 3 4 7 4 4 4 3 6 6 8 4 8 7 6 8 7 6
3 4 4 3 1 6 4 7 5 7 4 3 2 3 5 3 8 6 7 5 9 7 6 6 3 8 3 2 3 1 3 8 7 4 7 2 8 8 7 8 10 7 7 8 8
4 2 3 2 4 1 4 6 3 4 4 7 3 9 7 7 4 7 11 9 10 12 12 8 5 4 8 3 3 3 5 6 7 5 0 3 9 1 5 5 6 8 10 9 6
3 3 3 4 3 1 5 3 4 5 6 5 5 6 3 5 3 9 9 8 12 9 11 9 1 3 10 9 3 3 2 5 6 5 5 5 8 2 6 6 3 8 5 8 14
2 2 4 4 0 3 3 4 3 5 6 6 6 1 1 5 7 5 3 6 14 11 12 10 4 9 9 7 4 4 3 4 5 5 6 7 8 11 2 6 7 8 11 15 15
1 1 1 1 2 2 1 2 2 3 3 3 3 2 4 6 3 6 1 0 8 7 5 8 6 3 0 6 3 4 6 6 4 5 6 5 8 10 4 8 7 10 16 16 13
1 2 4 2 3 3 1 3 4 2 3 7 3 13 12 6 5 3 5 1 5 4 5 3 4 3 5 5 4 3 2 4 1 3 4 3 8 6 4 4 8 16 17 15 13
2 2 2 3 2 0 3 4 5 5 5 6 6 4 7 7 4 3 5 8 6 7 5 5 8 5 4 3 4 4 4 3 2 3 3 4 6 3 2 5 12 18 19 18 15
Wind_Direction
353 352 350 347 345 345 341 338 335 333 332 330 330 330 330 330 322 134 253 217 173 149 140 128 261 246 127 252 189 137 72 245 232 156 233 151 172 138 1 123 114 140 149 142 131
351 346 346 346 343 339 339 336 334 332 332 330 327 328 328 336 330 290 266 241 142 157 151 166 281 238 203 235 187 114 116 223 210 202 197 174 164 140 115 167 28 70 92 125 134
353 348 343 341 343 340 336 334 332 330 329 327 326 327 324 330 343 253 8 336 183 180 184 148 219 130 70 324 171 192 216 249 251 170 178 165 161 124 131 274 211 163 142 142 144
349 348 346 342 338 339 334 331 328 327 326 326 324 325 318 304 253 147 113 121 161 165 135 99 11 46 51 328 258 267 242 219 277 134 143 158 137 124 168 225 169 154 153 150 161
348 342 337 336 337 334 332 327 323 320 322 324 326 329 348 184 249 343 38 159 136 120 101 121 34 27 14 321 321 178 308 335 291 132 168 142 170 152 199 130 123 134 154 166 172
343 338 338 332 334 333 328 323 317 312 316 318 324 323 333 249 238 66 18 350 72 64 84 160 151 204 252 250 170 270 295 298 263 170 145 158 128 133 141 135 138 145 163 172 181
336 334 334 333 333 332 328 320 313 306 305 310 321 324 349 233 10 322 311 231 169 167 241 202 167 90 351 308 307 281 327 335 247 169 187 136 94 214 143 146 157 156 159 174 191
332 332 336 335 331 329 327 317 304 292 288 288 302 291 250 263 318 304 199 276 233 194 205 177 169 151 178 290 354 19 43 348 344 4 342 109 259 275 149 150 170 170 155 168 193
332 331 331 331 334 330 325 316 303 274 246 244 54 101 267 312 286 285 171 221 298 190 233 143 121 108 34 56 5 15 323 2 320 37 323 95 226 346 142 157 172 178 181 165 191
332 332 328 328 332 331 325 314 343 103 204 193 266 9 275 281 288 286 172 136 161 320 64 74 54 82 35 64 255 306 345 314 284 317 47 69 140 21 140 166 177 179 191 186 215
329 331 327 330 331 331 340 44 19 343 255 195 199 233 289 293 279 327 147 104 93 52 148 360 100 208 182 181 186 196 193 281 271 243 79 354 54 15 253 149 169 197 197 210 229
326 328 328 331 329 324 259 134 199 194 305 231 230 281 272 66 307 303 151 111 138 176 132 27 218 152 167 176 216 206 330 288 295 17 90 324 56 63 28 156 187 180 219 216 222
326 328 329 333 327 85 291 230 4 343 300 293 189 197 226 141 212 256 138 130 139 137 159 155 219 143 102 276 275 235 203 243 241 69 63 131 10 340 313 285 190 180 207 238 218
323 328 334 333 66 330 266 302 325 184 47 279 269 268 150 163 237 210 197 136 109 191 138 221 265 216 178 247 145 308 186 229 205 101 188 34 258 263 247 293 214 209 216 240 244
319 325 329 332 295 256 311 339 340 53 2 246 225 185 284 159 166 209 218 55 168 169 110 236 165 117 283 212 174 247 49 354 93 107 107 7 66 266 28 265 247 201 236 234 233
316 320 328 84 232 245 318 326 61 45 260 335 131 149 163 330 126 122 125 81 156 146 82 215 256 217 211 218 167 216 101 36 45 76 35 334 136 283 195 201 198 188 213 234 209
314 311 298 183 232 109 303 67 42 137 320 341 267 157 179 162 196 131 131 138 154 115 76 324 259 255 200 326 120 86 63 345 345 19 222 123 60 240 225 217 182 181 197 176 188
317 314 219 203 249 246 22 57 173 252 274 299 299 112 171 155 241 96 109 148 300 90 116 145 304 170 174 188 189 160 152 153 201 188 253 110 241 260 234 160 180 262 222 156 173
320 321 245 250 202 279 85 94 212 214 279 316 330 110 239 188 158 131 181 188 187 160 154 134 272 286 221 145 139 181 177 168 103 24 56 278 292 301 236 259 239 219 177 181 165
322 337 273 84 155 109 80 221 240 228 307 19 61 4 99 185 157 155 181 204 191 183 147 197 298 244 292 104 40 188 152 69 12 124 229 298 286 247 237 202 174 183 176 162 155
351 8 332 77 135 54 150 228 265 249 254 313 260 273 231 228 187 186 208 257 182 170 125 138 126 296 346 22 156 146 90 56 110 102 153 218 265 219 215 200 175 175 167 173 181
338 30 343 54 60 6 159 199 246 272 257 259 230 208 200 187 233 215 205 215 165 145 158 189 136 216 244 257 192 209 174 130 121 220 170 159 269 172 261 195 171 143 165 178 170
352 271 323 79 125 291 290 281 231 247 230 238 256 210 187 222 222 197 198 212 151 142 155 177 231 27 347 352 336 70 81 96 108 94 190 140 266 273 82 120 149 142 125 91 91
352 23 331 54 194 129 358 268 294 254 257 229 253 283 346 265 218 271 244 195 175 172 120 97 128 158 189 205 166 159 165 177 110 116 173 224 285 299 156 168 177 109 94 100 101
36 317 206 300 318 330 279 294 282 297 257 290 323 134 351 283 327 208 269 186 50 118 87 128 179 124 287 247 226 161 171 178 167 161 154 238 209 265 251 215 168 127 121 118 119
57 360 347 277 311 303 208 222 253 280 33 281 331 342 343 258 228 267 169 129 159 34 110 1 169 110 5 355 90 105 157 185 138 137 273 250 276 243 323 123 113 136 136 133 139
313 310 124 289 331 285 246 288 284 17 257 239 6 9 355 322 321 96 59 89 103 136 124 110 130 114 191 339 57 12 242 203 259 169 201 211 244 315 272 222 147 149 154 157 165